Regional Weather Roundup
Issued by NWS Mobile, AL

Home | Current Version | Previous Version | Text Only | Print | Product List | Glossary On
Versions: 1 2 3 4 5 6 7 8 9 10 11 12 13 14 15 16 17 18 19 20 21 22 23 24 25 26 27
000
ASUS44 KMOB 040012
RWRMOB
REGIONAL WEATHER ROUNDUP
NATIONAL WEATHER SERVICE MOBILE AL
700 PM CDT TUE MAY 03 2016

NOTE: "FAIR" INDICATES FEW OR NO CLOUDS BELOW 12,000 FEET WITH NO
      SIGNIFICANT WEATHER AND/OR OBSTRUCTIONS TO VISIBILITY.

  * THESE STATIONS ARE PART OF THE UNIVERSITY OF SOUTH ALABAMA
    MESONET AND ARE NOT UNDER NWS OR FAA QUALITY CONTROL.

ALZ061>064-040100-
COASTAL ALABAMA

CITY           SKY/WX    TMP DP  RH WIND       PRES   REMARKS
MOBILE REG APT CLOUDY    72  65  78 NW7       29.90S
6HR MIN TEMP:  72; 6HR MAX TEMP:  76; 6HR PCP:  0.01;

BROOKLEY FIELD MOCLDY    73  65  75 NW12      29.90R
6HR MIN TEMP:  73; 6HR MAX TEMP:  79; 6HR PCP:  0.01;

USA CAMPUS*    NOT AVBL
DOG RIVER*     NOT AVBL


CITY           SKY/WX    TMP DP  RH WIND       PRES   REMARKS
MOUNT VERNON*  NOT AVBL
SARALAND*      NOT AVBL
BAY MINETTE*   NOT AVBL
LOXLEY*        NOT AVBL
ROBERTSDALE*   NOT AVBL
FAIRHOPE*      NOT AVBL
ELBERTA*       NOT AVBL
FOLEY*         NOT AVBL
GRAND BAY*     NOT AVBL
DAUPHIN ISLND* NOT AVBL
BON SCOUR NWR* NOT AVBL
GULF SHORES    RAIN      71  69  93 NW7       29.88R

$$

ALZ051>060-040100-
INTERIOR SOUTHWEST AND SOUTH CENTRAL ALABAMA

CITY           SKY/WX    TMP DP  RH WIND       PRES   REMARKS
GREENVILLE     CLOUDY    70  62  76 NW5       29.88R
6HR MIN TEMP:  70; 6HR MAX TEMP:  76; 6HR PCP: TRACE;

EVERGREEN      CLOUDY    71  61  70 NW6       29.89S
6HR MIN TEMP:  71; 6HR MAX TEMP:  78;

CASTLEBERRY*   NOT AVBL
ATMORE*        NOT AVBL
DIXIE*         NOT AVBL
ANDALUSIA/OPP  PTCLDY    76  64  66 NW9       29.86S
6HR MIN TEMP:  76; 6HR MAX TEMP:  84;

ANDALUSIA*     NOT AVBL
FLORALA APT    PTCLDY    72  66  81 CALM      29.88R
6HR MIN TEMP:  72; 6HR MAX TEMP:  81; 6HR PCP: TRACE;

FLORALA*       NOT AVBL

$$

FLZ001>006-040100-
WESTERN FLORIDA PANHANDLE

CITY           SKY/WX    TMP DP  RH WIND       PRES   REMARKS
PENSACOLA        N/A     75  68  78 N9        29.86S
NAS PENSACOLA  LGT RAIN  74  68  81 NW5       29.86R
6HR MIN TEMP:  74; 6HR MAX TEMP:  80; 6HR PCP: TRACE;

MILTON         MOCLDY    74  69  85 NW6       29.86S
6HR MIN TEMP:  74; 6HR MAX TEMP:  81;

WHTNG S FIELD  NOT AVBL


CITY           SKY/WX    TMP DP  RH WIND       PRES   REMARKS
WALNUT HILL*   NOT AVBL
JAY*           NOT AVBL
DUKE FIELD     MOCLDY    75  68  78 W5        29.84S
CRESTVIEW      MOCLDY    76  67  73 NW8       29.87R
6HR MIN TEMP:  76; 6HR MAX TEMP:  85; 6HR PCP: TRACE;

VALPARAISO     LGT RAIN  73  69  90 NW5       29.84F
6HR MIN TEMP:  72; 6HR MAX TEMP:  79; 6HR PCP:  0.68;

DESTIN         PTCLDY    76  73  91 VRB3      29.85S
6HR MIN TEMP:  76; 6HR MAX TEMP:  84; 6HR PCP:  0.02;


$$

MSZ076-079-040100-
INTERIOR SOUTHEAST MISSISSIPPI

CITY           SKY/WX    TMP DP  RH WIND       PRES   REMARKS
LEAKESVILLE*   NOT AVBL
AGRICOLA*      NOT AVBL

$$

MARINE OBSERVATIONS

STATION/POSITION TIME  TEMP    WIND        PRES    WAVE
                       AIR SEA DIR/SP/G            HT/PER
                 (UTC) (F)     (DEG/KT/KT) (MB)    (FT/S)
PASCAGOULA       2300   73                 1011.5F
PETIT BOIS ISLND 2300   74                 1012.4R
KATRINA CUT      2300   73     340/ 10       N/A
CEDAR POINT      2300   72     340/ 11     1011.5R
E DAUPHIN ISLAND 0000   74     330/  8/  9 1011.5R
MIDDLE BAY LIGHT 2300   74     320/ 13     1011.5R
USCG MOBILE BAY  2300   73 74              1012.5R
STATE DOCKS      2300   74 74              1011.8R
MEAHER PARK      2300   72     350/  5     1011.2R
WEEKS BAY        2200   76                   N/A
FORT MORGAN      2300   75                 1011.2R
12 S ORANGE BCH  2350   76 79  260/ 10/ 12 1010.6R   3/ 6
PENSACOLA BAY    2300   84 73              1011.3F
64 S DAUPHIN ISL 2300   76 77   30/  2/  4 1011.6R

$$

SELECTED LOCATIONS ACROSS THE REGION

CITY           SKY/WX    TMP DP  RH WIND       PRES   REMARKS
NEW ORLEANS    PTCLDY    74  64  71 N6        29.90S
GULFPORT       CLOUDY    74  64  71 N9        29.88R
PASCAGOULA AP  CLOUDY    73  66  78 N7        29.89S
PASCAGOULA*    NOT AVBL
HATTIESBURG    CLEAR     75  59  57 N5        29.90S
LAUREL         CLEAR     72  57  60 NW5       29.92S
MERIDIAN       PTCLDY    70  57  63 NW6       29.90S
JACKSON        MOCLDY    69  52  54 N12       29.94R
MONTGOMERY     MOCLDY    72  63  73 W3        29.87S
TROY           PTCLDY    72  64  76 NW7       29.88R
KINSTON*       NOT AVBL
GENEVA*        NOT AVBL
ASHFORD*       NOT AVBL
DOTHAN         MOCLDY    75  65  70 NW10      29.87S
PANAMA CITY    CLOUDY    77  70  79 SW10      29.84R

$$





USA.gov is the U.S. government's official web portal to all federal, state and local government web resources and services.